Location: Newark
(41.6500°N, 71.4833°W)
Time: 04:20:26
(UTC+00:00)

A-11 Canister half - Pass Details

Date: 26 January 2020
Orbit: 1517 x 1683 km, 47.2° (Epoch: 18 February)

Event Time Altitude Azimuth Distance (km) Brightness Sun altitude
Rises 10:30:00 0° 297° (WNW) 4,666 - -17.5°
Reaches altitude 10° 10:33:05 10° 293° (WNW) 3,681 - -17.0°
Exits shadow 10:35:48 22° 287° (WNW) 2,868 9.8 -16.5°
Maximum altitude 10:42:00 55° 219° (SW) 1,787 9.2 -15.3°
Drops below altitude 10° 10:51:02 10° 145° (SE) 3,729 11.7 -13.7°
Sets 10:54:12 0° 141° (SE) 4,731 12.5 -13.1°
